Theta_e
308 309 309 309 314 320 320 320 321 321 320 320 319 317 318 321 322 323 324 326 332 334 332 333 335 337 337 338 340 341 342 342 342 347 347 344 346 347 346 345 345 344 343 343 344 341 341 341 340 341 339 339 332 327 330 334 337 336 337 340 340 339 339 334 330 332 331 331 332 332 330 329 329 329 329 330 331 332 332 332 332 332 331 330 329 330 329 330 329 329 329 329 330 327 322 319 317
308 310 311 313 317 319 321 321 321 321 319 319 319 318 319 320 320 325 329 330 333 332 331 331 333 336 336 338 339 340 342 342 342 345 344 344 347 347 345 345 344 343 342 343 344 343 341 341 341 339 339 338 333 327 327 332 335 335 335 338 339 339 340 336 331 332 333 331 331 332 330 329 329 329 328 329 330 331 332 333 333 333 333 331 330 330 330 330 330 329 329 330 331 329 324 320 317
309 314 315 315 317 317 321 322 322 320 317 318 318 320 322 321 321 329 333 331 331 331 331 331 330 333 335 335 336 339 340 342 343 344 344 344 345 346 346 345 344 342 341 341 342 343 342 340 338 337 339 338 333 329 327 329 333 336 335 335 338 338 338 337 332 332 334 331 330 331 331 330 329 329 328 328 329 331 332 333 334 333 333 332 332 331 331 330 329 329 329 331 331 329 326 322 317
309 316 317 317 318 317 320 323 325 322 318 317 316 319 323 326 329 330 331 329 330 330 330 330 328 330 333 333 334 335 337 339 341 343 345 344 344 346 345 344 343 342 342 341 341 343 340 337 336 335 338 338 333 329 328 329 331 335 334 333 336 336 337 337 333 333 334 332 330 330 331 330 329 328 328 327 328 330 332 333 334 333 333 332 331 331 330 330 330 329 330 332 331 329 327 324 319
312 318 318 319 320 320 321 323 324 321 320 318 315 318 323 331 332 330 330 328 329 328 329 329 328 329 331 332 333 334 334 336 339 341 342 344 345 344 344 343 342 342 342 341 341 342 337 335 336 336 338 339 334 330 328 329 331 334 333 333 335 334 337 337 334 334 334 332 329 330 331 330 328 327 328 327 327 329 331 333 334 332 333 332 331 331 330 330 330 329 330 332 331 329 328 325 321
315 318 318 319 320 321 322 323 322 319 319 319 317 317 323 330 330 329 329 327 327 327 329 329 328 329 330 332 333 335 336 336 339 340 340 342 344 343 342 342 341 341 341 341 341 340 336 335 336 336 338 339 336 331 329 328 330 333 334 335 335 335 336 336 335 335 335 332 329 330 331 329 328 326 327 328 327 329 330 331 332 332 333 333 332 331 330 329 328 328 330 332 329 329 330 325 322
317 318 318 319 319 319 323 323 321 319 318 318 318 317 322 328 328 328 328 327 327 327 329 327 327 328 328 333 335 336 337 336 339 340 340 341 341 341 341 342 340 339 339 339 341 339 335 336 337 337 338 338 337 333 329 329 329 330 333 336 337 335 335 336 335 335 334 331 329 330 330 329 327 325 326 328 327 328 329 329 329 330 333 334 333 331 330 328 325 327 331 333 328 328 332 328 322
317 317 318 318 318 319 321 321 320 320 319 318 319 318 322 326 326 327 328 327 327 326 326 326 326 326 328 334 337 337 338 337 337 338 339 339 338 338 339 341 338 337 337 338 340 340 337 337 338 338 337 337 336 334 331 330 329 328 330 334 334 333 335 336 335 335 333 331 330 330 329 328 327 325 326 328 327 326 325 325 326 328 331 333 331 330 328 325 324 325 329 331 328 328 332 330 323
316 317 318 319 320 319 318 318 318 318 318 318 318 320 323 324 325 326 327 326 326 324 325 326 326 329 331 335 336 337 337 337 338 338 339 339 340 338 338 340 338 336 336 337 339 340 340 339 338 338 338 338 337 335 333 331 330 329 328 330 330 331 334 335 335 334 332 331 330 329 330 328 326 326 327 328 327 324 321 322 323 325 329 330 328 328 325 323 323 325 328 329 329 328 330 331 325
316 317 318 319 321 320 317 316 316 317 317 318 317 320 323 323 323 324 324 324 325 324 325 327 327 330 330 331 334 336 336 336 337 338 339 340 340 338 337 337 336 335 334 336 339 340 340 339 339 339 338 338 337 335 334 333 333 331 329 329 329 331 335 336 335 333 332 331 330 329 330 328 325 325 327 328 327 322 319 320 321 323 328 327 325 325 323 321 323 324 328 329 329 328 328 331 326
316 315 316 318 320 320 319 317 317 317 317 317 317 319 322 323 323 322 323 323 322 323 325 326 326 328 328 331 334 335 335 336 337 337 337 337 339 339 337 335 334 335 335 336 338 339 340 340 339 338 338 336 335 336 334 333 335 333 329 330 329 330 334 336 335 334 333 330 330 330 329 327 324 324 327 328 326 321 317 318 321 323 326 326 324 322 321 321 321 323 326 327 328 329 329 332 328
314 315 316 317 320 320 319 317 316 318 318 318 318 320 321 321 322 322 322 322 321 321 323 325 326 327 328 330 334 335 334 335 336 336 334 332 335 335 332 333 334 335 336 336 337 338 339 339 337 335 334 331 333 336 335 333 335 334 330 330 330 329 332 335 335 334 333 331 330 330 328 326 323 324 326 328 325 321 317 318 321 322 324 325 322 320 320 320 321 323 323 323 325 328 329 331 329
314 316 316 317 319 318 317 316 317 319 319 319 318 320 320 320 321 321 321 321 320 320 322 325 327 327 327 329 333 333 332 332 334 334 333 331 331 330 328 330 333 334 334 335 336 336 337 336 333 331 330 328 331 333 334 333 333 333 333 332 330 329 329 331 333 333 332 331 330 328 327 325 323 324 327 328 325 319 318 319 321 322 324 324 321 320 321 321 323 323 322 322 322 326 329 329 330
314 315 317 319 320 317 316 315 316 317 317 319 319 319 320 320 321 321 322 321 320 320 323 325 326 326 326 329 331 331 329 330 331 332 332 332 331 330 329 328 329 329 331 332 334 335 334 333 331 329 328 327 328 329 332 334 333 333 334 334 333 331 328 327 329 330 330 330 328 327 326 323 323 325 327 327 322 318 319 322 323 322 324 323 321 321 321 322 324 323 321 321 319 324 329 329 330
314 314 316 319 320 319 317 317 316 315 317 319 318 319 320 320 321 320 320 320 319 321 323 324 324 324 326 329 329 328 328 327 328 330 331 333 333 333 332 331 329 327 328 328 329 330 331 331 329 328 328 328 328 328 330 332 333 333 332 334 333 333 329 325 326 327 327 328 327 325 324 322 322 325 326 324 317 316 320 323 324 323 324 323 322 322 321 321 324 323 322 321 318 323 330 330 330
314 314 315 317 317 317 317 318 318 316 317 319 318 320 320 320 321 320 319 320 319 321 322 323 323 323 326 328 327 327 327 325 325 326 327 330 331 333 334 334 333 331 328 325 326 328 328 329 329 329 329 329 331 330 330 330 332 332 333 333 333 333 327 323 327 330 329 328 326 324 324 323 322 324 323 321 316 315 321 324 325 322 322 323 322 320 320 318 319 321 321 320 319 322 328 330 330
314 314 315 316 317 316 317 319 318 317 318 318 319 320 319 319 320 319 320 319 320 322 323 324 323 323 325 327 327 326 326 324 324 323 323 323 324 326 328 330 332 331 327 327 330 330 330 330 328 328 328 330 331 331 333 331 330 331 332 333 333 332 323 319 325 329 329 329 326 322 323 324 324 325 323 321 317 316 321 324 325 323 321 322 321 320 320 318 316 318 318 318 319 321 324 328 330
315 316 316 316 317 317 317 318 317 318 318 318 319 319 319 319 319 320 319 319 320 322 323 324 324 324 326 326 327 326 326 324 323 321 320 319 319 320 321 324 326 325 325 330 332 330 332 334 331 329 328 331 331 331 334 333 331 330 330 333 333 330 321 316 321 324 327 326 324 322 323 324 325 328 328 326 323 320 320 323 325 323 321 321 320 321 320 317 314 315 315 315 318 321 321 323 326
315 317 317 316 318 317 317 318 318 318 318 318 318 319 319 318 318 319 319 319 319 321 322 324 325 326 326 326 326 326 325 323 321 321 320 319 320 320 319 319 321 321 322 326 328 327 330 332 330 330 329 330 331 332 332 332 332 331 330 332 333 331 322 315 320 326 328 324 320 323 325 325 326 329 330 330 329 325 321 322 324 322 321 321 321 321 319 315 313 313 313 314 319 322 320 319 321
315 315 316 317 317 316 317 317 318 319 318 318 317 318 318 318 318 318 318 318 318 319 322 324 325 326 326 326 326 325 323 321 321 321 320 320 321 320 319 318 319 320 320 321 324 325 326 326 327 329 328 327 330 333 332 331 332 332 331 332 333 331 323 315 320 328 330 326 323 326 328 326 327 329 330 330 331 329 324 322 323 322 322 322 322 322 319 316 314 313 313 315 319 319 318 319 319
315 315 315 316 316 316 316 316 318 318 318 318 317 318 318 318 318 318 318 318 317 318 321 323 324 325 325 325 325 323 321 321 322 322 321 321 321 321 320 320 319 318 320 321 321 322 323 325 327 327 325 325 328 331 331 331 332 331 331 332 332 332 327 317 318 327 331 330 329 330 329 327 328 330 330 331 332 332 329 325 323 322 322 323 323 322 320 319 318 315 313 316 320 320 319 321 322
315 315 314 315 315 315 316 317 317 317 318 317 318 318 317 318 318 318 317 318 317 318 321 323 323 324 325 323 322 321 321 322 323 323 322 321 320 321 320 320 320 319 319 319 319 320 320 321 324 324 325 324 324 328 330 328 330 332 331 332 332 331 330 323 318 322 328 331 332 332 331 328 329 331 330 331 332 333 332 329 325 321 322 324 324 323 322 321 321 318 317 323 326 326 326 326 326
315 315 314 315 316 315 317 317 317 317 317 316 317 318 317 318 317 318 317 317 318 318 321 322 323 324 323 321 320 321 322 323 324 323 322 321 320 319 319 319 320 319 319 317 317 319 320 320 321 322 323 324 325 329 330 327 329 332 332 332 332 330 331 328 323 324 327 331 333 333 333 331 331 331 331 331 331 332 332 331 328 324 322 324 324 323 323 324 323 320 322 326 328 328 329 329 329
315 315 315 315 316 316 316 317 317 317 316 316 317 317 317 317 317 318 317 317 319 319 320 321 322 323 321 320 319 321 322 323 324 322 322 321 320 318 318 319 319 319 318 317 316 317 319 319 320 320 320 324 327 330 331 328 328 331 331 332 332 330 330 330 328 329 330 332 333 333 333 333 332 332 332 332 332 332 332 331 330 327 324 324 325 324 324 325 325 324 324 326 327 328 327 329 329
315 315 316 316 317 316 316 316 317 316 316 316 317 317 317 317 317 317 317 317 318 319 320 321 322 321 321 321 320 321 322 323 323 322 321 321 320 319 317 318 318 318 318 316 315 316 317 317 319 318 318 324 327 329 330 328 327 330 331 332 332 331 331 331 330 331 332 333 333 333 332 332 332 332 332 332 332 332 332 331 331 329 327 327 326 325 325 326 327 327 326 325 327 327 326 326 326
315 316 316 316 317 317 316 316 316 316 316 316 317 317 317 317 317 317 317 317 318 319 320 320 321 320 321 321 320 321 322 323 323 322 321 320 320 319 317 318 318 317 317 315 313 314 316 315 316 315 316 322 326 327 328 328 327 328 330 331 332 333 333 332 331 331 332 333 333 332 332 332 332 332 331 331 332 332 332 331 332 331 329 329 328 327 327 329 329 329 329 328 327 327 326 325 325
316 316 316 316 316 318 316 316 316 316 316 315 316 317 317 317 317 317 317 317 317 318 319 320 321 320 320 320 320 321 322 323 324 322 321 320 319 319 318 318 317 317 316 313 313 314 315 315 314 315 315 320 324 325 327 327 327 326 326 327 328 329 331 332 333 333 332 332 333 333 332 330 330 331 331 332 331 332 332 331 332 332 331 330 330 329 328 330 331 330 330 329 329 329 328 326 325
316 316 316 316 316 317 316 316 316 316 315 316 316 316 316 316 316 317 317 317 317 316 318 319 320 320 320 320 320 321 323 324 323 321 320 320 319 319 318 318 318 317 315 312 313 315 315 315 315 315 318 319 321 323 324 325 325 323 322 321 323 324 324 326 330 332 333 333 333 332 331 329 329 330 331 331 331 331 331 331 331 331 330 330 331 330 329 330 331 331 330 330 331 329 328 328 326
316 316 316 316 317 316 316 316 316 316 315 316 315 315 316 315 315 316 317 317 317 316 316 317 319 320 320 320 320 322 323 323 321 320 320 319 319 319 318 318 318 317 316 313 313 314 315 317 314 313 318 320 319 320 321 322 322 320 319 318 319 320 319 319 321 324 326 330 333 333 331 330 331 331 332 332 331 332 331 329 330 330 328 329 330 331 330 330 331 331 330 330 331 328 328 329 328
316 316 315 316 316 316 317 316 316 315 315 316 314 316 320 318 314 315 316 316 316 316 316 315 317 319 319 320 320 322 323 322 321 320 320 319 318 319 318 319 318 317 316 312 311 312 313 315 312 309 314 317 317 317 318 319 319 318 317 316 314 315 317 319 319 317 318 323 327 330 332 331 331 331 332 332 331 331 331 329 330 329 328 328 329 331 332 332 331 331 330 330 330 328 329 330 329
315 315 315 316 315 316 316 315 316 315 315 316 314 316 320 318 314 315 315 316 316 315 315 315 316 319 319 319 320 322 323 322 321 320 320 319 318 319 319 319 319 318 316 313 310 311 311 311 309 307 308 311 312 313 314 317 319 317 314 311 311 316 321 323 321 317 318 322 322 323 326 327 329 330 329 330 330 330 330 331 331 330 330 329 327 329 330 330 330 331 331 331 330 330 331 330 329
315 315 316 316 314 315 316 315 316 314 314 315 314 315 317 315 314 315 315 315 316 315 315 315 315 318 319 319 320 322 323 322 321 321 320 319 318 319 319 319 319 318 317 314 311 311 310 309 308 307 306 306 307 309 311 314 315 312 308 306 309 316 323 323 320 318 321 324 322 320 320 321 323 324 325 326 327 328 330 331 331 330 331 332 329 326 326 326 327 330 331 330 330 331 330 328 328
315 314 316 317 314 313 315 315 315 314 314 314 314 316 316 315 315 315 315 315 315 315 315 315 315 317 319 319 321 322 322 322 321 321 321 319 318 318 319 320 319 318 317 315 312 311 311 309 307 306 306 306 306 306 307 309 310 309 307 308 309 313 317 316 316 319 323 324 323 322 323 322 318 317 323 328 326 325 330 330 330 331 331 332 332 326 323 324 326 328 330 330 331 331 329 328 328
317 316 315 316 315 313 314 315 315 314 314 314 314 316 317 317 316 315 315 315 315 315 315 315 315 316 318 319 320 322 322 322 321 321 321 319 319 319 319 320 319 317 318 316 313 311 310 309 307 306 306 306 306 308 309 309 310 311 312 311 312 313 312 310 313 319 323 323 323 323 324 323 319 315 319 327 327 325 328 329 329 330 329 330 331 329 328 328 329 331 331 331 331 331 329 329 330
318 318 317 317 317 315 315 315 315 314 314 315 315 314 317 318 316 315 315 315 315 315 315 315 315 316 317 318 319 322 322 321 321 321 320 319 319 319 319 319 318 317 318 318 314 311 310 308 307 307 307 307 309 312 314 313 313 314 314 313 313 314 312 310 312 317 320 321 320 321 321 320 319 316 314 317 322 324 324 326 329 330 330 330 329 329 330 329 330 331 331 331 332 331 330 329 330
319 320 319 317 317 317 316 316 315 315 315 316 316 315 317 318 318 317 315 316 315 316 316 315 316 316 317 317 318 321 321 320 321 320 320 320 319 319 320 319 318 318 318 317 315 312 310 308 308 308 307 309 314 316 316 315 314 314 314 313 313 313 311 309 309 310 311 312 313 316 317 315 312 313 313 313 314 315 315 319 324 327 328 329 329 329 329 329 329 328 329 332 333 332 331 330 330
323 321 319 317 316 316 318 318 319 322 320 317 318 319 319 319 320 319 315 315 316 315 316 316 316 317 317 318 317 319 320 320 321 320 319 320 320 320 320 319 319 319 317 316 314 313 312 310 308 308 308 312 318 318 318 318 315 313 312 312 312 312 310 308 307 306 305 305 306 309 310 308 304 306 310 311 311 310 310 312 315 318 319 321 323 324 326 328 329 329 328 330 331 331 332 330 328
324 320 317 316 316 315 317 320 320 324 323 320 320 319 319 320 320 319 316 317 317 315 315 316 316 317 317 318 317 318 319 319 319 319 320 320 320 320 320 319 320 319 318 316 314 313 314 313 310 309 308 312 318 317 317 318 315 312 312 311 312 312 310 308 307 307 307 305 304 304 304 303 302 303 305 306 308 308 308 308 309 312 313 315 317 318 319 324 327 329 328 327 327 328 330 330 329
323 320 318 317 317 316 318 323 322 323 324 323 322 319 322 325 322 320 318 317 316 315 316 315 316 317 317 318 318 317 317 318 319 319 320 320 320 320 320 320 320 319 319 317 316 314 314 315 313 311 309 310 316 317 315 314 313 311 311 310 310 311 310 309 308 307 307 307 306 305 304 304 304 304 304 305 306 306 306 307 307 309 311 313 314 316 317 321 325 328 329 329 328 328 327 328 328
323 319 318 318 318 315 317 323 323 324 324 321 321 321 324 326 321 320 317 315 316 315 316 316 316 317 317 317 318 318 318 317 319 319 320 320 320 320 320 320 320 320 319 318 317 316 315 316 315 313 312 311 313 316 315 311 310 310 310 310 310 311 311 310 308 307 307 307 307 307 306 305 304 304 304 305 307 306 305 305 307 308 310 312 313 314 317 319 321 324 327 329 330 330 329 327 327
324 322 320 318 320 318 317 321 325 327 327 325 320 322 329 326 319 319 316 314 316 316 316 316 316 316 316 317 317 318 318 317 319 319 319 320 320 321 320 320 320 320 320 319 318 317 316 316 315 314 314 313 312 313 312 310 310 311 310 310 312 312 312 311 308 307 307 307 307 307 306 305 304 305 305 305 306 307 306 306 306 307 310 313 314 315 317 318 317 318 320 323 326 329 330 330 329
322 326 325 322 322 321 319 321 323 324 326 328 320 321 336 334 319 319 318 315 317 317 317 316 316 316 316 316 316 317 318 317 318 318 319 320 320 320 321 320 320 320 320 320 319 317 317 316 316 315 315 314 313 313 311 311 312 312 311 312 312 313 313 312 310 308 308 307 306 306 306 305 305 305 306 306 306 307 308 308 308 310 312 314 315 315 316 318 317 315 314 315 317 321 325 328 330
320 325 327 325 322 321 322 319 319 319 320 325 321 319 332 333 320 319 319 316 317 318 318 316 315 317 316 316 316 316 317 316 317 317 318 319 320 320 321 320 320 320 320 320 319 318 317 317 316 316 316 315 314 313 312 312 312 312 312 312 313 314 313 313 311 310 309 308 307 307 306 306 306 305 305 305 306 308 309 309 310 312 313 314 315 314 315 317 317 316 315 314 314 317 320 322 324
320 324 324 323 320 321 323 319 318 320 317 321 323 318 322 325 319 319 319 317 317 318 319 318 315 316 316 316 316 316 316 316 316 316 317 319 320 320 320 320 320 320 320 320 320 319 318 318 316 316 317 315 314 314 313 313 313 313 313 313 313 314 313 312 312 311 310 309 307 307 307 306 306 306 305 305 305 306 307 308 309 310 311 313 314 313 313 313 314 315 317 318 318 319 320 320 320
320 325 323 321 319 320 322 319 318 318 316 319 323 318 319 321 320 318 318 318 318 318 319 318 316 316 316 316 316 316 316 316 316 317 318 319 320 319 318 319 319 319 320 320 319 320 320 319 317 317 317 316 315 315 314 314 313 313 313 313 313 313 312 312 312 312 311 309 308 308 307 307 307 306 306 306 305 305 305 305 305 306 308 310 312 313 314 314 313 313 314 316 318 320 322 323 323
321 323 321 318 318 319 318 317 316 316 317 319 321 319 318 320 323 319 318 319 319 319 319 317 316 315 316 317 316 317 316 317 317 317 317 318 319 319 318 319 319 319 319 319 319 320 320 319 318 318 318 317 317 316 315 315 314 313 313 314 314 313 313 313 313 312 311 309 308 308 308 307 307 307 306 306 306 305 305 305 305 304 305 306 307 309 311 313 315 315 315 315 317 319 322 324 326
320 320 317 316 318 318 317 316 315 314 317 319 318 319 317 319 324 321 319 321 320 319 318 317 316 315 316 316 316 316 316 317 318 317 317 318 319 320 319 319 319 319 318 319 320 320 320 320 319 319 319 318 318 317 316 316 315 314 313 315 315 314 314 314 313 312 311 310 309 308 308 308 307 307 307 306 306 306 306 306 305 305 305 305 305 305 306 307 310 312 314 314 315 317 320 322 324
318 319 316 315 318 318 315 314 314 315 318 318 316 317 316 317 323 321 319 321 321 320 318 318 318 316 316 317 316 316 315 317 318 318 318 317 319 321 321 320 319 319 319 319 319 320 320 320 319 319 320 319 318 318 317 316 316 315 314 315 315 315 314 314 313 312 310 310 310 308 308 308 307 307 307 307 307 306 306 305 305 305 305 305 305 304 304 304 305 305 306 308 311 314 316 319 321
317 317 315 314 316 316 315 315 317 318 319 318 315 316 318 318 318 318 318 319 320 320 317 317 317 316 315 317 316 315 315 317 318 318 317 316 317 321 321 321 320 319 319 319 319 319 320 320 320 320 320 319 319 318 316 316 317 315 314 314 314 315 314 314 313 311 310 310 310 308 308 308 307 307 307 307 307 306 306 305 305 305 305 305 304 304 304 304 304 304 303 303 306 309 312 316 319
315 315 316 316 314 314 315 316 318 318 319 323 319 317 320 320 319 318 319 319 319 317 315 316 316 315 316 316 316 316 316 317 318 317 317 317 317 319 320 320 320 320 319 319 319 319 320 320 320 320 320 320 319 317 316 316 316 315 315 314 314 314 314 314 313 311 310 310 309 308 308 308 307 307 307 307 306 306 306 305 305 305 304 304 304 303 303 303 303 304 304 303 303 304 307 310 314
315 313 314 316 316 314 314 316 317 317 320 325 322 317 319 322 325 323 318 317 316 314 315 316 315 314 316 317 317 317 316 316 317 317 317 318 317 318 319 319 319 319 319 319 319 319 320 320 320 320 320 320 318 317 315 314 314 314 314 314 314 313 314 314 313 311 310 310 309 309 308 307 306 306 306 306 306 306 306 305 305 305 304 303 303 302 302 303 303 304 304 303 303 302 303 305 308
317 314 312 315 318 317 316 317 318 316 318 321 319 319 322 323 326 323 317 317 316 315 315 314 315 315 314 316 316 316 317 316 317 318 318 318 318 319 319 319 319 319 319 319 319 319 319 320 320 320 320 319 318 316 315 312 312 313 314 314 313 312 312 312 313 312 310 309 309 309 308 307 306 306 306 306 306 306 306 305 305 304 303 303 302 302 302 303 303 304 304 303 303 302 302 303 305
318 315 314 317 317 316 318 321 320 317 319 320 316 319 323 320 321 321 319 320 318 316 316 313 314 315 313 315 316 315 317 316 316 317 318 318 319 319 319 319 319 319 319 319 319 318 319 319 319 320 320 320 318 315 314 312 311 313 314 313 312 311 311 311 312 311 310 309 309 309 308 307 306 306 306 306 306 306 305 305 304 303 303 303 302 302 302 303 303 304 304 304 304 303 303 303 304
315 313 315 317 317 319 320 319 318 317 318 319 316 317 319 317 319 320 317 318 319 318 318 316 314 315 314 315 315 315 315 315 315 315 316 318 319 319 319 319 319 319 319 318 318 318 318 318 317 318 320 319 316 314 312 311 312 313 314 312 311 310 310 310 310 311 310 310 310 309 308 307 306 306 306 306 306 305 305 304 303 303 303 303 302 302 302 302 303 303 304 305 305 305 304 304 304
313 313 314 315 317 320 319 316 317 318 317 318 318 318 317 316 318 318 315 317 319 320 319 319 316 315 315 315 315 315 314 314 315 314 314 317 319 319 319 319 319 319 318 318 318 318 318 317 316 316 318 316 313 312 312 312 312 314 313 311 310 310 310 310 310 310 310 310 310 309 307 306 306 306 306 306 306 305 304 303 303 303 303 303 302 302 302 302 302 303 304 304 305 306 305 305 304
314 315 314 314 316 317 317 316 318 318 316 317 319 317 316 317 318 317 317 317 318 319 319 318 316 314 315 315 315 315 314 315 315 314 315 317 318 319 318 319 319 318 318 318 317 318 317 317 317 317 316 314 313 312 312 312 313 313 312 310 310 310 310 310 310 310 310 310 309 308 307 306 306 306 306 306 305 304 303 303 303 303 303 303 303 302 302 302 302 303 303 304 305 306 307 306 305
315 316 317 316 316 316 316 316 315 314 316 316 316 316 318 320 320 318 317 317 317 318 319 318 315 314 315 315 314 315 314 314 315 314 315 315 317 319 318 318 318 318 318 318 317 317 317 317 317 316 314 313 313 313 312 312 312 312 311 310 310 311 310 310 309 309 309 309 309 308 307 307 306 306 306 305 305 304 303 303 303 303 303 303 303 302 302 303 303 303 303 303 304 305 306 307 307
312 313 315 316 316 315 315 317 317 317 320 318 316 317 319 319 320 318 316 317 316 315 316 316 315 315 315 315 314 314 314 314 314 314 314 314 315 317 318 319 319 318 318 318 318 318 317 317 316 315 313 312 313 313 312 312 311 311 311 311 311 311 310 310 309 309 309 309 309 308 307 307 306 306 306 305 304 303 303 303 303 303 303 303 303 303 303 304 304 304 304 303 303 304 305 306 307
Wind_Speed
5 4 4 6 4 2 3 1 1 2 2 4 5 3 6 8 8 3 2 5 7 10 22 25 28 28 21 17 21 23 18 10 4 5 6 12 15 11 11 10 12 12 11 12 11 10 10 9 9 8 8 8 8 9 10 11 12 14 15 16 16 15 15 15 15 14 12 11 10 10 10 10 10 10 10 10 10 10 11 11 10 10 10 10 9 9 8 9 11 12 11 10 10 11 14 16 16
5 4 6 7 4 1 4 2 1 2 2 4 5 4 8 9 6 3 6 8 8 14 27 30 31 32 29 26 28 27 21 20 19 20 19 19 18 13 10 10 11 11 10 11 9 9 11 10 10 9 9 9 9 9 10 11 12 12 13 16 16 15 16 16 16 14 12 11 10 10 10 9 9 9 8 8 9 9 9 9 9 8 8 9 9 8 7 8 10 11 11 10 10 10 13 16 18
5 4 7 5 2 3 5 2 1 1 2 5 5 5 7 7 2 7 12 13 16 22 26 28 27 20 24 23 22 19 13 21 25 25 24 20 18 15 11 10 10 9 10 11 10 10 12 12 11 10 9 9 10 9 9 10 13 12 12 15 16 14 15 17 17 14 12 11 10 10 10 9 8 8 8 7 7 8 9 8 8 8 7 9 8 8 7 7 9 10 11 10 10 9 11 15 19
4 5 5 2 0 4 3 0 3 2 3 4 5 5 5 2 8 10 15 18 19 23 23 26 21 17 24 19 16 17 13 18 20 21 21 17 16 15 12 10 9 9 9 10 11 12 13 13 11 10 10 10 10 9 9 10 12 13 12 14 15 13 14 17 18 15 13 12 10 9 9 8 7 7 7 6 6 8 9 9 9 8 7 8 8 7 6 7 8 9 10 10 10 9 10 14 18
5 6 5 1 1 2 1 1 2 3 5 3 4 4 3 7 12 9 14 19 18 20 23 24 14 19 27 18 14 14 14 17 17 18 19 15 14 14 13 11 10 10 9 10 12 14 14 13 11 10 10 10 10 9 9 10 11 13 13 13 12 12 13 16 17 16 14 12 11 9 8 8 7 7 6 5 6 7 8 9 9 7 7 8 8 7 6 6 7 8 9 10 9 8 10 13 16
6 5 3 3 5 4 2 2 3 4 6 4 6 5 1 6 10 8 12 16 19 22 24 24 19 21 22 20 22 17 16 18 18 16 16 17 13 12 14 12 11 11 10 11 13 14 15 13 10 9 11 11 9 9 9 10 11 12 12 11 11 10 11 14 16 16 14 12 11 9 8 7 7 6 5 5 5 6 7 8 8 7 7 8 8 6 5 5 6 7 8 10 8 7 9 11 14
4 2 2 4 6 4 1 3 5 5 7 7 8 8 3 6 11 11 9 11 16 22 25 26 28 23 13 17 21 18 17 18 20 17 17 17 12 11 13 14 13 12 11 11 13 15 14 11 9 9 10 10 10 9 8 10 10 11 11 11 11 10 10 13 15 15 14 12 11 9 7 7 6 6 5 5 5 5 5 6 6 6 7 7 6 5 5 5 6 7 7 8 6 7 10 11 13
2 4 4 2 2 2 2 3 5 5 7 7 8 7 4 8 11 11 6 6 5 11 21 26 32 20 9 19 18 16 21 20 22 19 17 14 11 10 9 13 13 12 11 11 13 14 14 11 8 9 11 10 10 10 8 9 10 10 11 12 11 9 10 13 14 14 14 12 10 8 7 5 5 6 5 5 6 6 4 4 4 4 5 5 5 5 5 4 5 7 7 6 5 7 9 11 13
3 7 5 2 1 2 3 4 5 7 10 8 9 5 10 10 11 11 5 7 6 8 19 25 31 20 12 23 20 19 23 22 25 23 20 15 12 11 9 12 12 13 12 11 12 12 13 11 7 9 11 10 11 11 9 9 9 9 10 10 11 10 11 14 14 14 14 11 9 7 7 4 3 5 5 5 6 6 4 3 4 4 5 4 5 5 5 4 5 7 6 6 5 6 8 10 12
9 9 5 2 2 4 4 5 5 7 11 10 13 8 13 12 8 9 7 9 11 14 24 29 29 24 18 18 18 20 21 19 23 23 22 18 14 12 12 11 10 12 12 11 11 11 12 10 9 10 10 9 10 10 9 9 8 8 9 9 10 9 11 14 14 14 13 11 8 6 6 4 2 4 4 5 7 6 4 5 5 6 6 5 5 5 5 4 5 6 6 6 6 6 8 10 12
8 9 6 2 2 4 4 5 6 7 10 9 9 8 14 12 6 6 10 11 16 19 26 28 22 26 22 15 18 20 20 19 20 20 18 15 13 13 12 12 12 11 11 12 11 10 10 10 11 11 10 9 10 9 9 9 8 7 7 8 9 9 10 13 13 12 11 9 7 6 5 3 2 4 4 5 7 5 4 6 7 7 7 6 6 6 5 5 5 7 7 7 7 7 8 10 12
6 4 4 2 3 4 5 6 7 9 9 8 6 6 12 9 6 5 7 10 15 16 20 24 20 25 17 10 21 22 23 21 19 19 14 13 13 11 11 13 13 12 12 12 11 10 9 10 12 11 10 8 9 9 8 9 8 7 7 7 8 9 9 11 11 11 9 7 6 5 4 3 2 4 4 6 6 4 4 6 7 6 6 6 5 5 5 5 5 6 7 7 7 7 8 10 11
8 3 2 2 4 4 5 6 7 8 7 6 6 12 14 7 7 4 6 12 13 6 14 28 28 27 14 11 24 25 24 21 19 16 14 14 13 13 12 13 14 13 12 12 12 11 10 10 10 10 9 8 8 8 8 9 9 8 7 7 7 9 8 9 10 9 8 7 6 4 3 2 3 4 5 8 6 4 5 6 6 5 7 7 5 4 4 4 5 5 6 7 8 8 8 10 10
11 7 4 3 4 4 5 6 6 6 6 6 7 16 14 6 9 8 11 12 11 13 19 31 31 25 17 15 21 25 25 22 21 17 16 16 14 15 15 14 13 13 13 11 12 11 10 9 8 8 7 7 7 8 9 9 10 10 9 8 8 9 8 8 9 9 8 7 6 4 3 2 3 4 5 7 5 4 5 6 5 5 7 7 4 3 3 3 5 5 6 6 8 9 8 9 10
14 12 3 2 4 4 5 5 7 6 5 4 5 17 12 7 11 14 18 13 13 22 24 26 24 18 18 17 18 27 28 25 24 20 19 18 15 15 14 14 14 13 13 11 12 10 9 8 6 6 5 6 6 7 8 8 9 9 8 8 8 8 7 8 9 8 8 7 5 4 3 2 3 4 6 6 4 4 6 5 5 4 6 6 3 3 3 4 5 5 6 6 7 8 8 9 11
15 12 1 2 5 4 5 4 6 6 5 2 8 14 9 10 16 18 23 21 15 19 21 16 13 14 23 25 26 31 30 26 25 24 24 22 19 16 14 14 12 12 13 12 12 11 10 8 6 3 3 4 3 4 5 7 7 7 7 7 7 6 5 8 10 9 8 6 5 4 4 3 2 4 5 5 4 5 6 6 5 5 6 5 3 3 4 5 6 5 6 6 6 8 9 9 11
15 10 2 3 4 5 5 4 4 3 3 4 12 9 5 11 19 20 23 25 21 23 27 21 14 21 28 29 34 35 30 27 26 25 23 22 21 19 18 16 13 12 12 10 10 10 9 8 7 4 3 2 1 1 3 5 6 6 5 6 7 6 5 8 11 10 9 7 6 5 5 5 4 5 5 6 7 7 7 6 5 6 5 5 4 3 4 6 7 7 7 7 7 7 8 9 11
11 5 3 4 4 7 6 4 4 3 1 1 9 8 6 9 11 16 18 20 25 27 29 30 26 28 33 33 36 34 29 28 24 21 21 21 20 18 19 19 16 13 10 9 7 7 7 8 9 8 5 3 2 1 1 3 4 5 5 6 8 6 6 9 11 12 10 8 8 7 7 7 6 7 8 9 10 9 8 6 5 5 5 5 3 2 3 5 7 9 9 8 8 7 7 8 9
8 3 3 5 5 9 10 9 6 4 1 4 5 8 5 8 9 9 10 13 20 20 23 33 33 30 34 35 33 30 28 24 19 20 23 22 19 18 19 19 18 16 13 13 10 9 8 7 8 7 6 4 2 1 0 2 2 4 6 7 8 6 7 9 12 12 11 9 9 9 9 8 7 7 8 10 12 11 10 7 6 5 5 5 3 2 2 3 5 8 10 10 9 9 8 7 7
10 6 2 6 8 11 14 15 8 4 3 7 6 7 4 12 14 8 7 10 13 13 18 26 29 30 32 33 30 29 25 21 19 22 26 22 19 20 21 20 19 17 16 16 13 11 10 8 7 5 5 4 3 2 1 2 3 5 7 7 8 7 7 9 11 12 11 9 9 10 9 8 6 5 7 10 12 13 11 9 8 6 5 5 4 3 3 4 5 5 9 10 10 10 10 9 8
8 8 4 7 8 9 12 13 10 7 5 6 8 6 4 14 14 10 10 7 5 11 26 30 32 35 33 32 29 26 24 22 21 23 26 24 22 22 21 20 18 17 17 16 14 10 7 7 7 5 2 2 4 3 3 0 2 6 8 8 9 8 7 10 11 11 11 10 9 11 10 8 6 5 6 8 11 13 12 11 9 7 7 6 5 4 3 6 6 5 7 10 10 10 11 11 9
6 9 13 14 11 8 7 14 18 14 10 8 6 4 3 11 9 11 11 6 1 4 27 37 37 39 35 32 28 25 26 22 21 24 26 25 24 22 21 19 17 16 16 15 13 9 7 6 7 6 4 3 3 4 3 1 1 6 9 9 9 10 9 10 12 13 13 11 10 10 10 8 6 5 6 8 10 11 12 12 10 8 8 8 7 5 3 4 5 7 11 13 12 11 9 8 8
7 7 15 19 19 12 1 10 12 15 15 11 4 2 4 7 5 8 7 8 12 8 25 36 36 38 33 29 28 27 25 21 21 25 25 23 23 22 20 17 15 15 15 14 13 11 9 9 10 9 8 4 3 5 3 1 3 6 9 9 10 12 12 11 12 13 13 12 11 10 9 8 7 6 6 8 10 11 11 12 11 9 9 9 7 6 4 2 4 9 13 14 11 10 8 6 6
10 6 10 15 20 12 7 11 8 9 12 12 8 2 4 4 6 8 7 15 23 20 27 35 36 34 28 27 27 27 24 20 22 23 22 21 22 22 19 17 15 15 14 13 13 13 10 9 10 10 11 8 5 6 5 3 5 6 9 10 11 13 14 13 13 13 13 12 12 11 10 9 8 6 6 8 9 10 10 11 11 9 10 10 9 7 5 3 5 10 13 13 12 9 8 7 4
10 7 7 11 12 4 14 11 5 2 6 8 9 6 5 1 7 8 9 19 23 25 30 33 35 30 25 26 25 25 24 21 22 22 20 19 20 20 18 18 17 15 14 12 12 13 11 10 10 8 11 12 8 7 7 5 6 7 7 9 11 13 15 15 14 14 13 12 12 11 10 10 9 7 7 8 9 10 10 11 11 10 10 10 10 8 6 5 6 9 11 12 11 10 10 6 1
10 10 9 10 7 4 12 10 5 3 5 4 4 6 10 6 3 2 8 18 20 25 32 30 30 28 25 25 23 25 25 23 23 21 19 18 19 19 19 19 17 15 12 10 10 10 9 9 9 8 12 15 9 7 7 6 7 8 8 8 9 12 14 15 15 15 14 14 13 11 11 11 10 9 8 8 9 11 12 12 12 12 12 11 10 9 8 7 6 5 7 10 9 10 11 6 5
9 9 10 9 3 4 6 10 6 4 7 6 2 3 8 9 5 2 2 10 17 21 27 30 29 28 28 26 24 25 25 24 24 23 22 21 20 21 21 19 16 14 10 9 9 9 8 8 7 7 12 14 12 10 8 6 6 7 8 7 6 7 10 13 15 15 15 14 14 12 11 11 11 10 9 8 9 10 11 13 12 13 14 15 13 12 12 10 8 7 5 6 5 5 9 8 6
6 2 7 7 3 4 5 9 2 3 7 9 4 1 6 8 5 5 8 6 15 19 17 25 30 29 28 28 26 25 26 25 26 26 25 24 21 20 19 17 16 13 10 9 11 11 9 9 5 8 13 13 12 11 10 8 6 6 7 7 6 5 5 7 10 12 13 13 12 12 11 11 11 11 10 9 9 10 11 12 11 13 15 18 16 14 16 14 11 11 9 9 8 6 11 10 7
2 1 4 6 2 3 7 9 6 6 6 9 6 1 6 6 7 9 15 13 13 19 14 17 26 30 30 28 27 26 27 27 27 26 25 22 19 18 17 16 16 13 10 8 9 11 10 9 5 8 14 13 11 11 10 9 6 5 7 7 7 6 5 6 5 5 7 10 11 12 11 11 12 12 11 10 10 11 13 12 10 12 14 16 16 15 18 17 14 13 13 11 10 11 13 12 9
2 1 2 3 6 3 8 10 10 7 6 11 9 1 6 5 11 16 19 17 13 16 13 13 20 30 32 28 27 28 28 27 26 24 22 21 19 18 18 17 16 12 9 7 7 10 11 10 5 9 14 12 10 9 9 9 7 6 5 5 5 5 5 5 5 5 3 3 9 13 12 11 13 11 10 11 12 11 12 13 12 12 14 14 14 15 16 14 14 14 15 14 14 14 11 10 11
2 2 3 2 3 5 8 11 11 7 7 15 11 3 6 6 13 21 17 21 18 14 12 12 17 30 32 29 29 29 28 28 25 23 21 21 21 19 19 19 16 12 9 7 7 8 8 7 4 7 10 10 9 7 8 11 9 6 3 4 6 7 6 3 2 4 6 4 1 8 9 9 12 12 11 11 12 11 10 11 12 12 13 12 13 13 12 11 11 12 14 14 15 15 13 13 13
1 1 4 2 3 6 9 10 14 8 8 18 12 2 6 6 9 18 18 25 22 17 15 11 15 28 32 29 31 31 29 28 25 23 21 22 24 21 21 21 16 13 11 8 5 6 6 5 4 5 7 7 7 6 8 10 8 5 5 7 8 10 9 4 3 5 6 5 2 3 6 8 9 10 10 10 11 11 10 10 10 11 12 12 14 14 12 13 13 12 12 13 15 16 16 16 14
1 4 5 4 5 7 7 8 17 14 8 12 10 3 3 5 6 10 12 29 24 18 16 13 13 24 32 30 31 32 30 28 26 24 24 27 27 24 24 21 17 13 12 9 5 6 6 5 6 7 8 8 8 8 8 8 7 7 8 9 8 9 8 5 6 7 6 5 2 2 3 4 7 7 7 8 9 9 9 10 11 12 12 11 14 18 17 17 17 14 12 14 18 18 16 15 13
3 2 4 5 6 6 4 5 13 14 9 7 7 5 4 6 2 9 11 20 18 14 13 15 15 19 29 30 30 33 32 30 30 28 28 31 29 27 26 22 18 14 12 9 6 6 6 6 8 9 9 9 9 10 10 9 10 10 10 10 8 7 6 5 8 9 7 5 3 2 1 2 6 8 9 10 9 8 8 10 12 14 14 12 14 17 18 17 16 16 15 16 18 18 17 15 13
2 1 1 5 5 6 5 5 9 11 10 8 7 7 7 6 4 7 12 13 14 14 12 15 17 19 27 28 28 32 32 31 33 32 31 33 32 28 27 23 20 17 14 11 8 8 7 6 8 9 9 9 10 12 13 12 13 12 10 10 7 5 5 4 7 6 7 8 6 6 6 6 6 7 10 11 11 12 10 11 13 13 14 16 16 17 16 16 15 16 16 16 16 17 18 16 15
1 2 1 3 5 5 4 2 6 9 8 6 7 7 7 6 5 7 13 16 18 19 16 15 18 21 26 26 26 29 31 31 33 34 32 34 33 31 29 26 23 20 17 14 11 10 9 8 9 9 9 10 11 12 13 13 12 10 9 8 7 5 4 5 5 3 2 5 7 7 8 9 8 7 8 9 10 12 12 13 15 14 13 16 19 20 20 18 17 16 16 15 15 18 19 17 17
3 3 3 4 5 5 5 3 1 4 5 4 6 6 7 7 5 5 10 15 14 15 17 15 16 21 26 26 24 25 27 29 33 35 34 34 35 34 32 29 27 23 19 16 14 12 11 10 10 9 10 11 10 9 9 11 11 9 8 8 6 3 3 7 8 6 5 1 4 7 9 10 9 8 8 9 8 9 9 10 13 14 15 16 17 19 21 21 21 20 20 20 18 20 21 19 19
4 3 3 5 4 4 3 1 1 4 4 3 2 1 5 5 5 5 4 7 9 13 15 16 16 20 26 26 23 22 21 24 31 37 37 36 37 35 33 31 30 27 22 18 16 14 13 11 11 10 10 11 9 9 10 11 12 10 8 7 5 1 1 5 9 10 10 8 5 2 7 7 6 7 8 9 9 10 9 8 9 11 14 15 15 16 18 20 23 24 24 24 23 23 24 22 21
4 3 3 4 4 5 4 2 4 6 3 2 4 4 5 6 6 7 6 5 11 19 22 21 21 21 25 27 25 25 22 20 27 36 37 36 37 36 34 34 31 28 24 20 17 16 15 13 13 13 12 12 11 11 13 12 11 8 6 7 4 2 2 2 9 12 13 13 11 8 4 2 1 4 7 7 8 10 10 10 10 11 12 13 13 13 14 16 18 22 25 26 25 24 25 25 24
2 2 2 2 4 4 4 3 3 4 2 1 3 4 5 6 6 6 11 14 13 22 28 26 24 21 21 24 24 26 27 23 24 34 38 36 37 37 36 35 32 29 25 22 20 20 18 16 15 14 13 13 13 14 15 13 10 8 7 6 3 3 4 2 8 11 11 12 12 11 10 8 4 1 5 6 8 9 11 13 13 12 12 12 12 12 12 12 13 15 19 23 24 25 26 26 25
4 3 2 3 4 5 4 2 1 3 2 1 2 4 5 5 6 7 10 15 13 19 27 24 22 22 19 19 19 20 25 24 23 31 38 37 38 39 38 36 34 31 28 24 23 22 21 19 17 16 14 15 15 16 14 11 10 8 8 6 4 6 6 4 5 7 8 9 10 10 10 9 6 3 1 4 7 9 10 12 12 13 12 11 11 11 11 12 12 12 13 16 19 23 26 27 26
4 4 5 6 6 8 6 1 3 5 5 4 1 1 5 5 6 8 7 8 9 13 19 20 22 23 21 21 20 17 18 20 20 25 33 38 40 41 39 37 35 32 29 26 24 22 21 20 19 18 16 16 16 16 13 10 9 8 8 7 5 7 7 5 2 3 5 7 8 9 11 11 9 7 4 1 2 5 8 9 10 10 10 11 11 11 11 10 11 12 12 13 15 17 20 24 27
3 5 5 6 7 9 9 3 3 2 2 4 4 4 4 5 5 9 7 7 10 10 11 16 22 23 24 25 26 25 22 21 21 22 26 33 39 42 40 38 36 34 31 27 24 22 21 20 20 20 19 18 17 16 13 11 10 9 8 7 6 7 9 7 3 2 3 4 6 8 10 11 11 11 9 6 3 0 4 6 7 9 10 10 11 12 12 11 10 11 12 13 14 14 15 18 23
3 5 4 5 6 8 10 7 2 3 3 4 3 5 3 4 7 9 6 6 9 9 8 12 18 24 28 29 30 31 30 28 26 24 21 24 35 42 41 38 36 34 32 28 26 23 22 21 21 22 21 19 18 16 14 13 12 10 9 8 9 9 9 8 6 4 2 3 5 6 8 9 10 10 10 8 7 4 1 1 3 5 8 9 11 12 12 12 12 12 13 14 15 15 14 16 19
5 5 6 6 4 3 3 3 3 1 2 5 4 4 2 4 7 8 6 5 6 9 11 10 14 23 29 32 33 34 35 32 29 27 23 21 31 41 40 38 36 35 32 29 26 25 23 22 22 23 23 20 19 17 15 15 13 11 10 10 11 11 11 10 8 6 3 1 2 4 6 7 7 8 8 8 7 7 5 4 3 2 3 5 8 10 11 13 14 14 15 16 16 16 16 16 18
6 3 2 2 2 4 3 2 2 2 1 5 6 4 2 4 6 7 5 4 7 9 10 10 16 25 28 29 30 29 32 35 32 31 29 26 31 38 37 37 38 35 33 29 26 25 23 23 23 24 24 21 20 18 16 16 14 12 12 12 13 12 11 11 9 7 5 3 2 2 3 5 5 6 6 5 6 6 6 6 6 5 4 3 4 6 9 11 14 15 17 18 18 19 18 17 17
7 4 2 3 4 4 3 2 2 3 3 7 7 5 4 4 5 6 4 5 7 6 5 5 13 22 25 25 23 21 25 32 36 34 31 29 30 34 36 38 39 36 32 30 27 26 25 25 25 25 25 22 21 20 18 17 15 14 13 12 12 11 11 12 10 8 7 7 5 3 4 4 5 5 5 5 4 5 5 6 6 6 6 6 5 6 7 8 11 14 16 18 19 20 20 19 19
6 4 3 4 4 4 3 3 2 1 5 8 7 6 4 4 6 6 6 6 4 4 5 2 5 14 22 24 22 20 19 23 31 32 29 28 28 30 34 37 37 35 33 31 28 27 27 27 27 26 26 24 23 22 20 18 17 15 14 13 13 12 12 12 11 9 10 9 7 5 4 4 4 5 6 6 6 6 7 7 8 8 9 9 9 10 10 11 12 13 14 16 18 20 21 20 20
5 4 4 3 3 3 1 2 1 3 7 6 5 5 4 4 7 9 9 8 3 3 6 5 6 10 17 24 21 20 20 20 25 29 28 28 27 27 32 35 35 35 34 31 29 29 30 29 29 28 28 26 24 23 21 20 19 17 16 15 14 14 14 14 13 12 12 11 8 7 5 4 4 5 6 7 8 8 8 8 9 10 11 11 12 13 14 15 16 16 15 16 16 18 19 21 22
3 4 4 3 2 1 3 3 3 4 5 6 4 4 4 4 6 8 9 7 4 5 10 13 13 10 10 20 22 20 21 22 25 29 30 29 28 29 32 34 35 35 34 33 31 31 32 31 30 29 29 28 26 24 22 22 20 18 16 15 14 15 15 15 14 14 14 12 11 9 7 5 4 5 5 7 8 9 10 11 12 13 13 14 15 15 15 16 17 18 18 17 18 18 19 20 22
4 4 5 5 4 3 4 3 2 3 2 5 4 2 4 4 6 6 7 7 9 8 6 13 17 11 5 12 21 22 23 22 24 30 31 30 31 33 36 37 37 37 36 35 34 34 33 33 32 31 30 30 28 26 24 23 21 19 17 15 15 15 15 15 15 15 15 14 13 11 9 7 6 6 6 7 9 11 12 13 14 16 16 17 18 17 15 14 15 17 19 19 19 20 20 20 21
3 2 4 4 5 5 4 3 3 2 1 3 2 1 4 4 6 7 8 10 12 11 5 6 11 11 8 8 12 16 22 23 24 30 33 33 35 37 38 39 39 39 39 37 36 36 36 34 32 32 32 31 30 28 26 24 22 20 18 16 15 14 14 15 16 16 16 16 15 13 11 9 8 7 8 9 10 12 14 15 16 18 18 18 19 19 18 16 14 15 17 19 19 20 21 22 22
3 2 3 5 6 6 3 3 0 2 2 4 1 2 4 4 6 7 7 9 9 8 8 4 4 9 11 11 10 9 13 15 17 24 29 33 37 39 39 41 41 40 40 40 39 38 37 35 33 32 33 33 31 29 27 24 23 21 19 16 14 13 13 14 15 17 17 18 17 14 12 11 10 10 10 10 12 13 15 16 18 19 19 19 19 20 20 20 18 16 17 18 19 19 21 23 24
3 3 4 3 2 1 2 1 1 1 2 3 1 3 5 4 4 6 8 8 8 6 5 6 6 2 3 6 8 9 10 10 11 14 18 25 35 40 40 41 41 41 41 40 40 39 37 35 33 33 34 34 32 29 27 25 24 22 19 16 14 12 12 12 14 16 18 18 17 15 13 12 12 12 12 13 14 15 16 17 18 19 20 20 19 20 20 21 21 20 20 20 20 19 21 23 25
5 6 4 2 0 1 1 1 1 2 3 3 4 5 4 3 4 6 7 5 5 6 4 6 8 7 6 6 6 3 2 7 11 13 14 18 31 40 42 42 41 41 42 41 40 40 38 35 33 33 34 34 32 30 28 26 25 23 19 15 13 12 11 12 13 15 17 17 17 15 14 14 14 14 14 14 15 16 17 18 19 20 21 21 21 21 21 21 21 22 22 22 22 22 22 23 25
5 5 4 1 3 3 2 3 3 3 3 3 4 4 3 5 4 1 3 4 4 5 6 7 10 13 13 13 16 18 16 11 6 9 10 14 28 37 40 42 42 42 43 43 42 40 39 37 33 33 34 33 32 31 29 28 26 23 20 16 14 12 12 12 13 15 16 17 16 15 15 15 15 15 14 14 15 17 18 19 20 21 22 23 24 24 24 23 21 22 22 23 24 24 24 24 24
5 4 4 3 1 0 1 2 2 3 3 2 3 4 5 6 2 5 6 6 6 7 6 6 11 18 18 18 20 23 23 22 17 12 10 7 21 34 39 41 42 44 44 43 43 42 40 37 35 34 34 34 34 32 30 28 26 24 21 18 15 13 12 13 13 15 16 16 16 17 17 16 16 15 15 15 16 17 18 19 21 23 24 25 26 26 25 24 23 23 23 24 25 25 26 25 24
5 3 3 4 3 1 2 4 2 2 3 3 2 3 6 7 2 4 6 5 5 7 6 5 10 15 16 18 20 20 20 21 22 21 20 16 8 17 33 42 41 41 43 42 42 43 41 38 36 35 36 36 35 33 31 29 27 25 22 18 15 14 14 14 14 15 16 16 16 17 17 17 16 15 15 16 17 18 19 21 22 24 25 26 26 26 25 24 24 25 26 27 27 27 26 25 24
Wind_Direction
175 180 169 136 124 53 349 272 244 251 172 271 256 243 258 246 250 238 149 83 81 68 75 72 66 79 87 91 94 74 59 56 68 100 128 146 134 133 137 137 135 133 129 137 141 145 155 141 131 115 103 100 99 117 137 151 153 157 161 163 164 156 153 158 154 145 140 134 123 110 105 107 103 99 101 105 113 122 131 130 128 131 131 130 125 110 91 89 84 81 92 103 105 89 87 98 103
173 168 132 118 106 35 300 194 161 273 170 271 260 221 251 267 267 125 96 79 91 90 80 71 69 84 94 93 89 77 65 72 85 102 121 137 131 133 137 136 137 134 130 136 138 142 153 147 141 127 115 111 107 117 134 148 156 158 161 168 170 162 158 160 160 154 147 142 134 120 111 108 102 100 99 104 115 120 129 132 131 129 128 133 134 120 96 91 88 81 92 110 116 97 89 100 103
174 146 117 112 113 221 282 283 206 236 187 255 262 248 258 262 231 100 90 84 89 89 80 70 64 77 90 79 76 82 91 93 98 109 123 142 137 137 145 143 143 140 136 136 138 143 147 146 144 133 126 121 112 118 132 146 158 161 160 168 170 164 161 161 163 161 156 153 145 132 120 109 99 102 102 101 112 117 122 130 134 131 127 130 134 126 105 96 91 83 95 116 125 108 92 100 104
164 143 134 113 35 222 268 266 200 203 224 253 266 286 305 78 99 91 91 94 95 90 84 78 63 64 85 86 83 85 93 97 106 115 123 142 140 140 147 144 149 146 137 133 138 145 147 145 141 136 136 127 115 120 129 138 155 161 160 167 169 164 160 163 165 165 165 162 153 143 129 112 98 104 109 107 112 118 122 129 134 134 133 132 130 125 111 101 95 87 99 120 130 120 99 99 105
140 143 148 93 347 247 281 222 200 206 226 238 270 296 6 83 90 90 103 108 108 101 99 97 83 71 77 85 93 93 97 94 105 116 115 125 134 139 138 140 146 139 134 131 135 147 151 144 140 140 143 134 119 123 130 132 146 157 162 167 170 166 162 164 166 167 171 166 158 153 139 120 107 105 112 115 120 128 129 132 136 136 138 138 131 126 121 108 101 96 106 124 131 130 110 101 106
123 126 169 246 271 290 312 253 233 235 238 234 261 275 119 102 97 103 100 100 95 100 107 103 102 90 75 73 81 94 109 106 108 113 112 117 129 132 131 136 138 133 132 129 132 147 150 141 137 140 142 139 126 123 133 134 137 149 160 169 171 166 165 167 165 167 173 168 163 161 145 129 116 108 114 126 130 140 140 137 139 139 141 142 137 134 132 120 110 106 120 130 131 141 122 106 109
91 26 245 235 259 270 253 245 255 255 249 230 246 266 214 131 119 113 82 79 82 95 110 108 105 96 84 86 79 86 104 112 115 115 112 116 128 125 129 135 135 132 128 127 132 149 155 146 135 138 144 145 136 128 135 138 135 139 145 155 163 163 166 166 163 166 171 170 166 167 152 135 125 114 121 139 147 151 147 143 142 138 142 147 144 144 141 129 120 116 129 135 133 151 134 114 114
42 291 267 226 260 240 200 253 258 254 259 246 260 273 160 135 120 113 86 93 100 108 118 113 104 91 89 100 86 94 103 107 117 121 114 116 130 125 134 138 135 128 123 128 134 149 157 152 140 142 148 145 142 137 135 137 136 137 137 144 150 156 166 165 164 167 170 173 169 168 162 145 128 119 128 147 160 161 152 153 148 137 143 154 154 154 152 140 132 126 136 145 139 154 145 125 119
284 253 269 264 227 255 231 246 245 249 262 256 267 264 113 112 111 117 122 126 143 115 112 113 104 99 100 97 96 107 108 113 120 121 121 129 141 138 145 143 137 127 123 127 131 144 150 147 143 149 150 142 142 143 141 141 137 138 139 143 146 150 164 169 168 170 172 174 169 167 171 168 134 122 138 154 163 165 165 175 168 158 160 165 162 164 165 151 143 138 146 159 152 156 153 135 124
265 233 244 275 228 267 257 254 247 245 252 246 253 226 125 117 132 134 127 128 123 93 101 110 106 110 112 101 109 117 118 130 130 127 132 139 149 147 144 145 140 125 123 124 128 138 143 144 140 148 150 137 143 151 153 150 141 138 139 140 144 145 158 170 171 174 175 172 167 167 177 186 154 130 146 164 165 164 174 189 179 174 177 174 170 174 176 169 159 152 160 169 164 160 157 142 129
259 224 219 276 267 262 250 254 254 251 252 248 254 200 138 121 134 126 112 116 113 111 112 107 105 115 114 108 118 124 127 134 137 140 144 147 160 156 136 134 132 122 120 120 126 133 138 144 137 144 149 138 145 158 167 158 146 142 143 140 141 141 151 166 172 179 178 167 165 173 184 195 167 143 154 169 168 171 194 191 178 178 183 177 176 181 182 185 180 170 174 181 178 172 164 148 134
252 240 210 228 235 244 243 255 258 261 260 243 254 168 147 120 111 117 118 122 114 125 124 113 122 121 109 114 126 130 127 125 133 139 142 140 149 146 122 115 117 117 118 116 119 125 136 142 138 145 152 145 147 160 171 163 151 152 154 147 142 141 149 164 173 182 180 169 172 182 194 204 174 157 159 169 172 195 209 183 173 180 185 178 178 182 183 190 190 182 182 190 194 188 177 159 143
235 268 223 233 232 239 251 265 264 273 280 232 209 160 160 136 126 150 125 124 112 104 122 127 132 120 113 133 129 129 126 127 133 133 128 120 117 113 105 102 106 106 107 111 114 120 131 138 141 151 154 147 150 158 167 165 159 160 159 158 154 147 152 167 176 180 178 176 181 191 203 201 174 164 161 171 184 217 199 175 173 182 183 177 171 165 171 186 183 188 187 189 201 199 186 169 154
227 245 232 254 259 257 261 268 272 284 285 234 172 147 155 156 146 133 110 109 83 82 114 132 131 117 126 134 126 130 130 134 134 129 122 112 106 101 96 96 99 97 95 100 106 111 121 129 139 147 154 153 162 164 163 165 164 163 159 162 162 153 157 173 182 180 177 182 186 187 193 173 157 159 162 176 197 213 188 176 177 183 181 172 159 149 162 188 178 180 184 182 197 200 185 171 162
233 251 248 264 279 283 268 261 272 280 275 273 147 136 133 144 135 96 94 96 76 96 112 131 133 126 146 148 136 137 139 142 137 131 122 113 110 102 97 96 93 90 87 90 94 93 98 111 130 139 155 160 169 169 165 163 161 166 164 166 163 153 156 171 179 177 175 182 185 182 185 172 146 155 168 186 203 197 184 182 181 180 179 175 162 159 181 204 190 178 178 181 190 192 181 171 166
239 247 285 274 275 284 272 270 284 274 258 3 109 131 106 92 99 86 99 105 90 90 89 103 130 147 154 146 138 143 145 147 144 138 131 124 121 115 109 105 104 97 85 82 80 76 77 83 99 116 148 152 158 153 157 160 160 167 163 163 162 151 148 165 172 167 167 173 179 183 191 191 172 168 185 199 195 184 183 183 180 169 167 176 178 186 213 218 213 199 186 183 180 185 185 178 170
247 235 252 277 271 270 260 260 292 304 261 102 116 134 94 86 89 94 108 109 98 80 72 76 109 140 143 137 138 146 148 147 148 146 142 139 138 134 129 124 119 106 87 82 72 67 68 71 78 74 91 79 22 100 127 148 156 163 158 155 153 144 143 159 166 163 166 171 177 182 188 198 203 194 194 196 189 184 184 183 181 169 157 171 189 200 224 225 221 207 191 186 179 183 192 189 178
251 210 211 246 257 255 253 266 296 41 338 166 141 147 105 114 101 99 103 101 101 90 84 87 100 122 130 137 143 147 150 150 151 151 151 150 149 145 145 141 127 112 99 99 90 79 75 72 70 64 72 52 6 37 104 137 148 158 155 153 150 140 139 148 155 159 163 170 178 180 183 193 202 201 197 192 189 185 183 188 188 178 164 168 185 207 221 224 217 203 191 186 176 174 186 189 184
244 186 196 223 245 251 263 280 296 55 320 300 137 142 90 129 133 109 108 105 105 98 97 99 102 114 127 139 146 149 153 152 153 156 154 154 150 139 142 147 140 135 129 127 118 98 92 87 75 67 79 74 66 61 72 133 145 163 157 155 155 148 142 145 149 153 160 170 177 181 187 195 207 211 206 200 195 188 180 185 191 189 184 176 182 200 198 199 201 196 188 182 173 165 163 162 163
234 222 225 227 244 252 274 280 278 50 51 342 55 115 106 135 137 132 138 128 126 125 122 116 117 125 133 140 146 152 153 150 155 157 154 153 146 135 136 143 149 153 150 148 140 112 100 102 96 83 85 83 87 72 32 124 145 164 163 161 163 160 151 151 154 156 164 174 177 188 199 202 209 218 214 207 200 194 183 182 189 197 199 192 199 199 172 158 160 177 183 178 171 163 155 147 136
215 205 229 247 257 262 296 330 348 12 49 29 43 58 106 136 136 142 138 131 163 158 147 142 143 144 144 146 150 154 151 152 160 159 155 150 144 140 141 145 150 157 158 159 161 146 127 125 122 112 120 130 109 71 27 58 177 180 174 170 169 171 167 162 161 162 171 181 186 196 204 205 207 207 212 210 200 195 191 190 191 198 206 207 210 209 178 151 136 131 144 143 141 145 147 141 121
210 205 224 246 266 272 311 18 20 5 14 39 57 26 132 139 134 138 138 147 354 169 159 154 152 152 148 149 152 153 152 156 161 156 153 149 147 148 147 151 157 161 167 164 158 154 160 176 172 162 169 178 144 98 37 348 223 195 185 181 178 181 183 174 172 174 180 188 193 203 207 212 217 208 213 211 199 194 194 196 194 198 208 215 216 215 204 155 125 110 117 116 115 117 125 130 107
213 228 222 234 245 248 343 51 31 4 355 360 18 292 177 137 117 125 120 112 66 67 162 154 146 147 144 147 150 152 156 160 158 154 156 155 153 152 149 156 165 168 174 168 154 147 158 186 198 194 180 173 154 124 76 114 172 189 191 192 190 190 190 184 183 184 190 196 198 208 212 216 217 210 217 219 213 205 198 197 198 203 208 216 222 219 223 182 117 113 119 118 112 108 123 140 113
198 244 224 237 247 234 95 76 53 9 336 342 8 333 212 142 131 142 110 99 82 86 140 141 136 143 142 145 150 153 159 159 154 154 158 158 155 153 153 158 165 169 169 168 167 166 173 187 194 202 183 151 111 128 135 157 169 188 198 199 195 193 193 192 195 194 197 205 208 212 214 214 214 210 215 224 228 223 214 205 204 211 211 213 218 224 232 193 130 117 120 118 116 116 129 139 121
206 244 234 255 268 185 102 90 75 30 295 333 13 349 313 45 132 154 122 110 103 105 125 132 134 140 142 146 153 154 160 162 156 157 157 158 159 158 162 166 169 171 169 174 183 184 192 203 201 206 182 151 113 123 145 164 176 174 184 194 195 196 196 194 202 205 202 210 217 217 215 217 219 217 218 228 234 233 230 220 213 217 220 214 211 223 235 196 155 128 123 117 115 124 130 138 223
212 225 238 260 264 157 116 118 122 143 253 311 11 323 317 325 34 111 120 116 118 120 129 138 141 145 147 150 156 157 164 167 160 161 161 162 166 165 167 172 176 175 172 181 191 191 196 209 208 200 182 166 153 147 139 151 179 178 175 181 191 196 197 196 204 209 207 215 223 218 216 218 222 226 229 237 235 231 233 230 223 221 225 221 213 217 226 208 184 167 139 126 121 130 145 175 241
212 222 247 262 198 181 139 129 132 155 222 264 230 252 289 290 312 305 191 128 130 129 133 144 149 151 153 155 159 162 168 170 165 162 160 161 164 166 169 176 182 179 180 186 181 181 195 215 210 178 172 172 178 184 170 163 178 195 197 188 185 187 193 202 209 209 205 213 224 221 217 217 223 231 234 238 233 227 228 232 230 227 225 222 217 212 218 216 203 213 194 163 158 150 172 202 235
230 248 271 275 155 174 136 119 186 209 206 241 222 238 284 278 270 195 233 224 149 147 146 148 152 153 156 158 160 166 169 168 167 164 161 163 166 170 176 186 191 186 189 190 179 183 205 221 205 160 166 174 182 190 192 189 182 200 217 204 188 174 170 191 209 217 213 212 219 225 226 220 222 229 233 235 233 225 221 224 229 229 226 224 220 209 214 220 214 210 204 214 229 207 205 222 230
266 17 307 305 319 215 156 140 211 219 187 207 184 323 293 276 269 211 216 234 163 149 158 154 154 156 157 159 160 166 169 166 166 167 166 168 174 180 186 194 198 193 189 191 187 191 207 219 210 170 174 181 184 183 185 186 177 191 215 209 198 194 171 155 166 202 225 222 221 229 235 226 219 224 230 230 229 227 226 225 224 225 230 231 224 216 216 222 230 215 191 199 202 195 215 225 216
50 283 284 302 322 287 188 174 193 204 192 182 151 147 273 263 262 245 214 200 163 144 157 166 158 155 156 158 162 165 167 168 168 168 170 172 177 183 185 188 195 196 188 187 189 192 207 223 218 178 179 189 192 183 176 169 163 177 194 194 195 195 177 158 142 133 131 219 227 224 226 225 220 225 230 228 228 232 234 227 221 222 228 233 226 225 227 228 241 227 195 184 178 186 212 214 208
68 295 300 206 281 281 219 188 178 199 183 154 129 152 256 259 256 257 220 165 154 155 160 178 164 154 158 161 164 167 169 173 174 174 177 178 180 184 184 184 192 200 192 188 186 183 199 215 198 162 171 187 192 184 172 163 160 167 152 153 156 136 127 120 141 136 104 69 255 213 214 224 222 229 235 234 234 236 237 228 223 221 221 227 222 223 236 245 250 232 209 196 183 191 207 210 213
125 213 294 237 203 255 248 193 173 187 166 142 129 199 253 260 277 275 223 162 152 165 169 192 175 157 160 164 167 168 170 175 178 181 184 183 183 186 188 187 194 204 200 197 189 175 181 184 153 132 139 149 154 152 156 160 157 137 107 127 143 135 133 130 125 113 97 83 54 172 195 216 215 225 235 236 240 233 226 223 221 217 214 219 212 206 220 240 247 237 220 206 195 201 210 216 220
235 172 241 248 199 241 262 198 177 172 159 146 145 176 238 244 328 339 188 160 153 166 174 198 191 163 161 166 170 169 169 174 180 185 184 184 185 189 192 191 196 207 207 203 193 183 181 161 141 129 128 123 120 119 126 141 134 108 98 107 124 138 142 139 128 114 106 111 97 130 159 211 209 210 213 219 232 227 219 220 218 211 208 207 204 203 209 223 236 233 218 209 205 205 207 214 221
293 205 230 254 223 240 263 193 178 158 151 172 173 182 222 239 318 45 121 144 150 167 181 196 198 173 164 167 172 171 171 175 180 182 181 183 185 189 193 191 194 205 208 203 196 192 186 161 147 137 128 117 114 111 105 106 100 89 81 79 91 113 112 122 137 138 148 155 167 193 197 222 209 208 206 207 212 210 209 213 215 214 211 204 202 208 214 219 225 220 214 220 218 206 200 207 219
298 336 295 277 263 260 249 187 178 160 158 177 177 198 234 251 224 142 140 146 160 179 197 199 197 181 167 168 172 171 175 180 182 181 180 184 185 187 192 192 192 198 203 204 201 193 187 167 150 139 129 119 113 108 102 99 93 87 80 70 73 80 69 110 148 159 185 198 211 223 235 236 224 220 218 217 218 219 218 211 207 210 216 216 213 216 220 220 220 218 218 225 225 211 202 204 215
38 345 25 299 309 304 291 156 169 165 164 183 167 186 231 248 235 194 183 183 179 185 199 202 196 182 169 170 174 173 177 184 185 181 181 185 186 189 194 193 190 192 198 203 203 197 190 175 156 144 131 122 118 115 114 114 110 104 100 98 102 93 43 59 100 100 179 221 238 235 238 242 239 231 221 220 222 226 231 229 220 213 220 228 225 223 226 226 225 225 227 226 223 219 215 212 216
55 7 4 338 332 325 343 41 99 119 123 204 186 181 230 245 250 246 209 196 186 185 195 203 196 181 174 173 175 178 181 186 187 184 185 188 188 190 194 192 187 189 195 199 200 201 200 190 176 162 142 133 131 131 138 139 137 133 130 135 131 111 24 51 65 52 51 33 255 233 235 244 242 233 228 229 230 230 230 231 226 218 223 232 230 228 230 232 231 228 228 227 224 223 224 224 224
35 43 10 343 326 302 320 79 11 55 95 224 238 185 258 270 285 297 249 196 196 200 199 206 203 185 179 178 179 185 189 190 187 183 184 186 185 187 191 190 187 188 194 197 199 201 206 204 193 183 164 157 153 150 160 158 155 153 148 162 166 150 24 59 51 36 33 29 27 197 221 237 245 240 239 238 236 236 230 222 216 212 218 224 226 229 233 235 234 231 231 231 228 226 226 227 229
16 35 30 338 302 302 320 16 25 37 61 288 350 357 287 286 292 296 283 232 209 208 206 208 206 189 178 182 187 191 195 199 189 182 182 183 184 187 188 189 190 193 195 197 199 198 203 207 203 196 183 177 170 165 176 174 172 178 178 186 192 201 203 74 41 33 28 22 26 34 31 8 289 237 232 235 233 233 231 227 221 214 216 218 218 223 227 232 235 234 233 235 235 234 231 229 230
1 16 40 288 284 304 318 338 32 68 108 253 351 341 296 294 298 293 267 257 238 214 210 211 209 198 183 184 190 192 197 202 192 184 184 184 184 187 188 189 192 195 195 196 197 196 199 204 209 205 191 187 183 181 191 194 195 201 192 192 194 192 190 95 44 39 35 26 22 22 22 20 17 219 210 213 221 229 229 227 226 223 223 223 219 215 218 223 228 232 235 238 241 241 240 237 235
316 295 244 241 274 285 280 277 14 46 28 271 333 343 316 283 274 282 263 260 254 215 208 211 208 202 196 192 195 196 198 201 192 185 185 184 186 188 189 192 193 194 196 196 197 199 199 203 211 210 198 194 196 198 202 202 202 198 189 185 166 167 165 112 68 49 46 38 28 24 25 24 28 47 189 210 217 229 233 233 231 227 227 228 224 217 217 220 222 228 233 238 243 245 245 244 243
304 276 233 228 255 275 273 290 51 28 352 288 233 335 300 277 252 260 260 261 253 204 195 204 206 202 201 201 204 206 206 206 201 195 192 189 188 190 190 192 193 194 197 199 201 203 202 205 209 209 205 201 204 209 212 208 207 206 195 183 164 165 166 160 148 38 46 50 39 31 32 32 39 56 59 55 220 227 234 240 236 228 226 226 227 225 223 226 230 233 236 239 243 248 250 248 247
279 259 238 229 239 263 263 262 68 86 275 263 178 169 265 294 279 260 247 239 238 209 185 197 201 200 204 208 210 211 215 217 215 216 214 201 191 189 190 192 195 196 199 201 202 204 205 207 207 207 210 211 210 212 215 214 214 212 199 185 178 181 183 191 225 314 15 39 39 38 37 33 36 49 56 58 59 143 236 242 238 234 234 232 234 235 233 233 236 243 247 247 246 249 254 252 249
244 244 255 254 240 250 246 232 169 172 241 282 197 169 219 285 276 266 244 226 235 223 209 201 195 198 204 209 212 212 214 216 217 217 218 206 194 192 191 194 198 199 200 200 201 206 208 206 206 208 212 217 219 216 215 218 220 221 213 195 186 196 209 222 245 267 305 15 24 30 35 36 36 41 47 55 65 67 49 279 254 249 249 245 245 247 245 240 238 240 246 249 249 248 252 255 255
231 222 242 259 258 277 251 199 166 176 290 301 266 199 211 270 267 278 276 245 239 221 215 209 198 200 203 206 211 214 214 214 215 212 208 203 196 195 195 197 201 201 199 201 204 208 208 206 206 209 213 220 224 222 221 222 225 227 220 204 200 212 225 230 243 255 261 319 3 21 26 31 37 40 40 44 56 62 60 53 34 349 287 266 261 259 256 251 247 244 242 244 247 247 251 257 259
217 201 260 306 333 346 13 55 40 18 313 261 254 206 223 277 271 281 291 264 248 223 207 204 206 206 203 204 209 214 215 213 213 211 209 203 194 194 198 200 199 200 201 203 205 207 207 206 206 209 214 221 226 228 228 226 227 230 222 211 215 225 225 226 242 254 255 265 285 357 3 6 19 28 30 31 40 47 46 43 33 23 10 339 299 277 264 258 256 253 250 248 247 246 250 259 263
173 131 40 22 349 332 348 7 38 22 300 257 244 214 212 265 276 261 252 255 247 204 170 196 211 209 204 204 210 212 212 211 211 211 209 200 191 193 199 199 197 199 202 202 203 205 206 205 205 209 215 221 227 231 231 230 230 233 230 224 226 230 227 231 244 252 252 259 270 297 328 346 357 359 0 0 6 16 17 13 7 359 351 343 332 312 294 278 269 263 260 259 255 250 249 256 263
135 104 71 46 345 333 338 332 63 156 264 255 245 242 228 243 269 260 247 268 273 144 127 130 192 198 198 202 210 208 204 207 207 207 203 193 189 194 196 195 196 198 200 200 202 206 206 204 204 208 214 219 227 233 234 233 233 234 235 233 233 234 238 243 246 247 249 254 263 278 292 316 330 332 338 336 334 344 351 348 341 337 333 329 328 322 313 303 291 282 274 267 262 258 254 254 258
98 86 82 76 318 322 306 262 192 209 245 253 242 245 247 239 249 257 253 255 264 180 177 167 163 180 196 203 204 199 195 193 194 194 189 187 190 195 194 193 194 196 198 201 204 206 204 203 204 208 213 218 226 233 235 235 236 236 234 233 236 237 241 247 244 242 250 254 255 256 263 280 305 317 323 323 321 324 326 324 324 326 327 325 321 316 309 300 292 285 279 271 264 260 258 254 253
134 129 124 146 194 274 262 237 222 226 255 281 265 226 254 274 258 265 264 246 253 231 200 194 199 192 197 206 199 189 187 182 183 184 183 188 194 196 195 195 195 196 199 201 203 205 202 202 204 208 213 218 224 231 234 236 238 238 236 236 240 242 245 248 244 243 249 254 254 256 261 266 272 286 296 301 305 307 311 315 320 323 323 321 316 310 305 297 286 277 271 267 263 258 256 254 253
198 176 155 165 167 191 233 218 207 226 268 297 295 229 228 245 250 273 296 300 317 311 215 198 208 196 154 193 190 183 182 180 184 187 189 194 198 199 198 197 197 198 199 201 202 202 202 203 206 210 213 217 223 228 230 234 239 239 239 242 246 248 252 253 249 247 249 251 255 258 263 269 271 273 276 284 293 300 308 314 318 321 322 322 322 320 317 309 293 277 267 263 261 259 256 254 253
264 199 158 180 187 189 218 207 177 166 344 290 274 246 223 222 265 292 317 313 316 322 294 211 198 180 146 167 183 181 182 183 187 190 194 199 199 199 198 197 198 199 200 201 201 201 202 204 208 211 215 218 222 226 229 233 238 240 242 246 249 249 253 255 250 247 249 251 254 258 263 270 276 278 280 285 291 299 307 312 316 318 321 324 327 327 325 322 310 286 270 264 262 260 257 254 251
282 281 204 214 205 180 203 256 240 82 348 280 244 304 294 307 311 302 298 285 288 310 310 298 185 186 188 188 192 188 183 191 197 195 200 203 199 198 198 198 198 199 200 201 203 204 205 207 210 212 215 218 222 226 229 232 236 240 242 243 246 250 253 255 251 246 247 251 254 257 261 267 274 279 283 287 292 300 308 312 315 316 320 325 329 329 325 320 314 301 281 269 264 262 259 255 253
205 244 228 266 274 153 125 237 346 36 275 274 256 269 278 286 303 294 284 273 274 305 341 18 36 63 193 197 198 199 199 212 225 226 224 213 202 198 199 200 200 200 202 203 205 207 207 210 214 214 214 217 222 227 229 232 236 239 240 241 245 252 257 256 252 248 247 251 255 256 258 264 270 276 282 289 297 306 311 312 314 317 322 326 327 326 322 315 310 306 296 282 272 264 259 257 255
229 238 219 96 22 327 22 184 173 179 229 276 274 259 255 234 236 272 286 286 289 308 9 36 22 28 25 354 347 345 239 223 230 246 250 221 204 200 199 201 203 203 205 205 206 208 209 212 215 216 217 218 222 226 227 231 236 237 237 240 244 248 252 252 250 250 250 253 255 255 256 260 266 274 283 292 300 306 309 313 317 322 324 325 325 324 322 319 310 304 300 294 283 270 262 258 256
289 285 279 109 159 175 176 208 190 176 207 253 270 269 258 236 211 215 327 8 36 18 33 37 21 23 20 8 13 18 13 358 302 262 256 218 205 204 202 204 206 206 206 206 207 208 210 213 214 214 217 219 221 224 226 230 233 235 235 236 239 242 248 248 246 248 251 253 254 253 255 259 266 274 283 291 298 305 311 317 322 326 326 325 325 323 322 321 315 307 301 297 290 279 268 263 260
331 320 294 305 288 141 59 254 200 139 171 219 268 273 257 246 198 88 50 42 56 52 55 59 42 33 26 24 27 22 11 1 353 339 323 257 212 207 207 208 209 208 207 206 208 210 211 212 213 213 214 216 218 221 226 230 231 232 234 235 238 243 249 248 244 243 246 248 250 251 254 259 266 274 282 291 301 311 319 324 326 327 326 324 322 322 320 319 316 312 306 300 295 285 276 271 269
321 304 257 252 252 254 299 284 283 108 151 173 179 263 266 270 297 51 51 55 52 41 46 65 63 50 32 21 18 14 4 351 345 343 343 340 296 221 211 208 205 205 205 206 209 211 212 213 214 213 213 215 217 220 225 228 228 230 233 235 239 245 250 249 244 242 242 242 245 248 253 260 267 276 287 298 310 319 324 326 327 325 323 321 319 318 318 317 314 310 306 303 299 292 285 281 281